Location: G�kdere
(37.0328°N, 30.9000°E)
Time: 02:37:31
(UTC+00:00)

Helios 1A Rocket - Pass Details

Date: 03 March 2021
Orbit: 564 x 584 km, 98.3° (Epoch: 22 April)

Event Time Altitude Azimuth Distance (km) Brightness Sun altitude
Rises 17:33:26 0° 183° (S) 2,768 6.4 -20.9°
Reaches altitude 10° 17:35:41 10° 191° (S) 1,871 5.6 -21.3°
Maximum altitude 17:39:29 39° 261° (W) 869 4.3 -22.1°
Drops below altitude 10° 17:43:17 10° 331° (NNW) 1,873 6.0 -22.8°
Sets 17:45:33 0° 339° (NNW) 2,772 6.8 -23.3°
